Wind_Speed
36 36 36 36 35 35 35 35 34 34 35 35 35 34 34 34 35 35 36 36 37 37 37 37 38 38 39 40 40 41 41 42 43 43 43 44 45 45 45 45 45 46 46
38 37 37 37 37 37 37 37 36 36 36 36 35 36 36 36 36 37 37 37 38 38 39 39 39 40 41 41 42 42 43 44 44 45 45 45 45 45 46 46 47 47 48
39 38 38 38 38 38 38 38 38 38 37 37 37 37 38 38 38 38 38 38 39 40 40 41 41 42 42 43 43 44 44 45 46 46 47 47 46 46 46 47 47 48 49
41 40 39 39 39 39 39 39 39 39 39 39 39 39 39 39 39 39 40 40 41 41 42 42 43 43 43 43 44 45 45 46 47 48 49 49 49 49 48 48 49 49 50
41 41 40 40 40 40 40 40 40 40 41 41 40 40 40 40 40 41 41 42 42 42 43 43 43 43 44 44 45 46 46 47 48 49 49 50 50 51 52 51 51 51 52
42 42 41 41 41 41 41 41 41 42 42 42 42 41 41 42 42 42 43 42 42 42 43 43 44 45 46 46 46 47 47 48 49 50 51 51 52 52 53 53 53 53 53
42 42 42 42 42 42 42 42 42 43 43 43 43 43 42 43 43 43 44 44 43 43 44 44 45 46 47 47 47 47 48 50 51 51 52 53 53 54 54 55 55 54 53
43 43 43 43 43 43 43 43 43 43 43 43 43 43 43 44 44 44 45 45 44 44 45 46 47 47 48 48 48 49 50 51 51 52 53 54 54 54 55 56 57 56 55
42 42 43 43 42 42 43 43 43 43 44 43 44 44 44 44 45 45 46 46 46 46 47 48 48 48 48 49 50 50 51 52 52 53 54 55 55 55 56 57 58 58 57
40 41 42 42 42 42 43 43 43 43 44 44 44 44 44 45 46 46 47 47 47 48 49 49 48 49 49 50 51 51 52 53 53 54 54 55 56 56 57 57 58 58 58
41 41 41 41 41 42 43 43 43 44 44 44 44 44 44 45 46 47 47 48 48 49 49 49 49 50 50 51 52 52 53 53 53 54 55 55 56 56 57 57 57 57 58
41 41 41 41 41 42 43 43 43 44 44 44 44 44 45 46 46 47 47 48 49 49 49 50 50 50 50 51 52 52 52 53 53 54 55 55 55 56 56 56 56 57 57
41 41 41 41 42 42 42 42 43 43 44 44 44 45 46 46 47 47 48 49 49 49 49 49 49 50 50 51 52 52 52 53 54 54 54 54 54 55 55 56 56 57 57
41 40 41 40 41 41 42 42 42 43 43 44 44 45 46 47 47 48 48 48 48 48 48 48 49 49 50 51 52 52 52 52 53 54 54 54 54 54 55 55 56 56 56
39 40 40 41 41 41 42 42 42 42 43 43 44 45 46 47 47 48 48 47 47 47 48 48 48 49 50 51 52 52 52 53 53 53 53 53 54 54 54 55 55 55 56
38 38 39 40 40 40 41 42 42 42 42 43 44 45 46 46 47 47 47 47 47 47 47 47 48 50 50 50 51 51 52 52 52 52 52 52 53 53 54 55 55 55 56
37 37 38 39 39 40 40 41 41 42 42 43 44 45 46 46 46 46 46 46 47 47 47 48 49 49 50 50 51 51 51 51 51 51 51 51 52 52 53 54 54 55 56
38 38 38 38 39 40 40 40 41 42 43 43 44 45 45 46 46 46 47 47 47 48 48 48 48 49 49 49 50 51 51 51 51 51 51 51 51 52 53 54 54 55 55
39 39 39 39 40 41 41 41 41 42 42 43 44 45 46 46 45 45 46 47 47 47 47 48 48 49 49 49 50 50 50 50 50 50 51 52 52 53 54 54 54 54 53
40 40 40 41 41 42 42 43 43 43 43 44 44 45 45 45 45 45 46 46 47 47 47 47 47 48 48 48 48 48 49 49 49 50 51 52 53 53 53 53 52 52 51
41 41 41 42 42 42 42 42 42 42 42 43 43 43 43 43 44 44 45 46 46 46 46 46 46 46 46 46 46 47 48 49 49 50 50 51 51 51 50 50 50 50 49
41 41 41 41 41 42 42 42 42 42 42 42 42 42 42 42 43 44 44 43 43 44 44 44 44 45 45 46 46 47 48 49 49 49 50 50 49 49 49 49 48 48 46
40 40 41 41 41 41 41 42 42 42 41 41 41 41 41 41 41 42 41 42 42 42 43 42 42 43 44 45 45 45 46 47 47 48 49 48 47 47 46 47 46 44 43
38 39 40 40 40 40 40 40 40 40 39 40 40 40 40 40 40 40 40 40 41 41 41 42 42 42 43 44 44 44 44 45 46 46 45 45 45 44 44 44 43 42 41
36 36 37 38 38 37 38 38 38 38 38 38 38 38 38 38 38 38 38 38 39 39 40 40 40 41 41 42 43 43 44 44 44 43 42 42 42 42 42 42 41 40 40
33 34 35 35 35 36 36 36 36 37 36 36 36 36 36 36 36 36 36 37 37 37 38 39 39 40 41 41 41 42 42 42 41 41 40 40 40 40 40 40 39 39 39
Wind_Direction
249 250 251 252 253 254 255 256 257 259 259 260 262 264 265 267 268 269 270 272 273 274 276 277 278 280 281 282 282 282 282 284 285 285 286 286 286 286 287 288 288 287 286
251 251 252 253 254 255 256 256 257 259 260 261 262 264 265 266 268 269 271 273 274 276 277 277 279 280 281 282 283 283 283 285 285 286 286 287 286 286 288 288 288 288 287
252 253 254 254 255 256 257 257 258 259 260 262 263 264 265 267 268 270 272 274 276 277 278 278 279 280 282 282 283 284 284 284 285 286 287 288 288 288 288 288 289 289 288
253 254 255 256 256 256 257 258 259 259 261 262 263 264 266 268 269 270 272 274 276 277 278 279 280 281 282 282 282 283 284 284 285 286 287 288 288 288 288 288 289 289 288
254 254 255 256 257 257 258 259 259 259 260 262 263 264 266 267 269 270 272 274 276 277 278 279 280 281 282 282 282 283 284 284 285 286 287 287 288 289 289 288 289 289 289
254 255 255 256 257 258 259 260 260 260 261 262 263 265 266 268 269 271 272 274 275 277 278 279 279 281 282 282 283 283 284 285 285 286 287 288 289 289 290 290 289 289 289
254 255 256 257 258 259 260 260 260 260 261 262 264 265 266 268 270 271 273 274 275 277 278 279 280 281 282 282 283 284 285 285 286 286 287 288 289 290 290 291 290 290 290
255 256 257 258 258 258 259 259 260 261 261 262 263 265 267 268 270 272 273 274 275 276 278 280 280 281 282 283 284 284 285 286 287 287 288 289 289 290 291 291 291 291 291
256 256 258 259 259 258 259 259 259 260 261 263 264 266 267 268 270 271 273 274 275 277 279 280 281 281 282 283 284 285 286 286 287 288 289 290 290 291 291 292 292 292 291
257 258 259 259 259 258 258 259 259 260 261 263 265 267 269 269 270 272 273 274 275 277 279 280 281 282 282 284 284 285 286 287 288 288 289 290 291 291 292 293 293 292 292
257 259 259 259 259 259 259 259 259 260 261 263 266 268 269 270 271 272 273 275 276 277 279 280 281 281 283 284 285 285 286 287 288 289 290 291 292 292 293 293 293 292 292
258 259 259 259 259 259 259 259 260 261 261 263 265 267 269 271 272 273 274 275 277 278 279 279 280 281 282 284 285 286 287 288 289 290 291 292 292 293 293 293 293 293 292
258 259 258 259 258 258 259 260 261 262 262 264 265 268 270 271 272 274 275 276 277 279 279 279 280 281 282 285 286 287 288 289 290 291 291 292 293 293 293 293 294 294 293
257 258 258 258 258 258 259 260 261 262 263 264 266 268 270 271 273 275 276 277 278 279 280 280 280 281 283 284 286 287 288 289 290 291 291 292 292 293 293 294 294 295 294
255 256 256 257 257 257 258 259 260 262 264 265 267 269 270 272 273 274 276 277 277 278 279 280 280 282 284 286 286 287 288 289 290 291 292 292 293 293 294 295 295 295 295
255 255 256 255 256 257 258 258 260 263 265 267 269 270 271 273 274 275 276 276 277 278 279 280 281 283 285 286 287 288 289 290 291 292 292 293 293 294 295 296 297 297 297
254 255 255 254 255 257 259 260 262 264 266 268 270 272 272 273 274 275 275 276 277 278 280 281 282 283 284 285 287 288 289 290 291 292 293 293 294 295 295 296 297 298 298
255 256 257 256 257 258 259 261 263 265 267 269 271 272 272 273 274 274 275 276 277 278 280 281 283 284 285 286 288 289 290 291 292 293 293 294 295 296 296 297 297 298 298
258 258 259 258 259 260 262 263 265 266 268 269 270 272 273 273 273 274 276 277 278 279 281 282 283 284 285 286 288 289 291 291 292 293 294 295 295 296 296 297 298 298 299
259 260 260 260 260 261 263 265 266 267 268 269 271 272 273 273 274 274 276 277 278 280 281 283 284 285 287 288 290 290 291 292 293 294 295 295 295 296 297 297 298 298 298
257 259 260 261 261 262 263 265 266 267 269 270 271 272 273 274 274 276 277 278 279 281 282 283 285 286 288 290 291 292 293 293 294 294 295 295 296 296 297 298 299 299 299
257 259 260 261 262 263 263 264 265 267 268 269 271 272 273 274 276 277 278 279 281 282 283 285 286 287 289 290 291 292 293 294 295 295 295 295 296 296 297 298 299 300 300
257 258 260 261 262 263 264 264 264 266 267 268 270 272 273 275 277 277 278 280 282 283 285 286 287 289 290 292 293 293 294 295 296 297 296 296 297 297 298 299 300 300 300
257 259 260 261 262 263 264 264 264 265 267 268 270 272 274 275 277 278 279 281 282 284 285 286 288 290 291 292 292 293 295 296 297 298 297 297 297 298 299 300 300 300 301
258 259 261 262 263 263 263 264 265 266 268 270 271 272 273 275 277 278 280 281 282 284 286 287 289 290 291 293 295 295 296 296 297 297 298 298 299 299 299 300 300 300 302
259 260 261 262 263 263 264 264 265 266 268 270 271 272 273 275 276 277 279 281 283 285 287 288 290 292 294 295 296 297 297 297 298 298 299 300 301 300 300 299 299 301 303
Height
5759 5761 5763 5766 5768 5770 5772 5774 5775 5777 5778 5779 5781 5782 5783 5784 5785 5785 5785 5786 5786 5786 5786 5785 5785 5784 5783 5782 5781 5780 5779 5778 5777 5776 5774 5773 5771 5769 5766 5764 5762 5760 5757
5751 5753 5756 5758 5760 5762 5764 5766 5767 5769 5771 5772 5773 5774 5775 5776 5777 5777 5777 5777 5777 5777 5777 5776 5776 5775 5774 5773 5772 5770 5769 5768 5767 5765 5763 5762 5762 5758 5756 5753 5751 5748 5745
5742 5745 5747 5750 5752 5754 5755 5757 5759 5761 5762 5764 5765 5766 5767 5768 5768 5769 5769 5769 5768 5768 5767 5767 5766 5765 5764 5763 5762 5760 5759 5758 5756 5754 5752 5750 5749 5748 5746 5742 5740 5737 5734
5734 5737 5739 5741 5743 5745 5747 5748 5750 5752 5753 5755 5756 5758 5758 5759 5760 5760 5760 5760 5759 5758 5758 5757 5756 5755 5754 5753 5751 5750 5748 5747 5745 5742 5740 5738 5736 5734 5734 5732 5728 5725 5722
5725 5728 5730 5732 5734 5736 5737 5739 5741 5742 5744 5745 5747 5748 5749 5750 5751 5750 5750 5750 5750 5749 5748 5747 5745 5744 5743 5742 5741 5739 5737 5735 5733 5731 5729 5727 5724 5721 5719 5719 5717 5713 5709
5715 5718 5721 5722 5724 5726 5728 5730 5731 5732 5734 5736 5737 5739 5740 5740 5741 5741 5740 5740 5740 5739 5737 5736 5735 5734 5732 5731 5729 5728 5726 5724 5722 5719 5717 5714 5712 5709 5705 5703 5702 5699 5697
5706 5708 5711 5713 5715 5716 5718 5719 5721 5722 5724 5726 5727 5728 5729 5730 5730 5730 5730 5730 5729 5728 5727 5726 5724 5723 5721 5720 5718 5716 5714 5712 5710 5707 5705 5702 5698 5695 5692 5689 5686 5684 5683
5696 5698 5700 5702 5704 5706 5707 5709 5711 5712 5714 5715 5717 5718 5719 5719 5720 5719 5719 5719 5718 5717 5716 5715 5713 5712 5710 5708 5706 5704 5702 5700 5697 5695 5692 5689 5685 5682 5678 5675 5671 5669 5668
5685 5687 5690 5692 5693 5695 5696 5698 5700 5701 5703 5705 5706 5707 5708 5708 5708 5708 5708 5707 5707 5706 5704 5703 5702 5700 5698 5696 5694 5692 5690 5687 5685 5682 5679 5676 5672 5668 5665 5661 5656 5653 5651
5675 5677 5679 5681 5682 5684 5685 5687 5689 5691 5693 5694 5695 5696 5697 5697 5697 5697 5696 5696 5695 5694 5693 5691 5690 5688 5686 5684 5682 5679 5677 5674 5672 5668 5665 5662 5658 5655 5651 5647 5642 5638 5634
5664 5666 5668 5670 5671 5672 5674 5676 5678 5680 5682 5683 5684 5685 5685 5686 5686 5685 5685 5684 5683 5682 5681 5679 5677 5676 5674 5671 5669 5666 5664 5661 5658 5655 5652 5648 5644 5640 5636 5632 5628 5624 5619
5654 5656 5657 5659 5660 5662 5664 5666 5668 5670 5671 5673 5673 5674 5675 5675 5674 5674 5673 5672 5671 5670 5669 5667 5665 5663 5661 5659 5656 5653 5651 5648 5645 5642 5638 5634 5630 5626 5622 5617 5613 5609 5604
5644 5645 5647 5648 5650 5652 5654 5655 5657 5659 5661 5662 5663 5663 5663 5663 5663 5662 5661 5660 5659 5658 5656 5654 5653 5651 5648 5646 5643 5640 5638 5635 5632 5628 5624 5620 5616 5612 5608 5603 5599 5595 5590
5633 5635 5636 5638 5640 5642 5643 5645 5647 5648 5650 5651 5652 5652 5652 5652 5651 5651 5650 5649 5647 5646 5644 5642 5640 5638 5636 5633 5630 5627 5624 5622 5618 5615 5611 5606 5602 5598 5594 5589 5585 5580 5576
5622 5624 5626 5628 5630 5632 5633 5635 5636 5638 5639 5640 5641 5641 5641 5640 5640 5639 5638 5637 5635 5634 5632 5630 5628 5626 5623 5621 5617 5614 5611 5608 5605 5601 5597 5593 5589 5584 5579 5575 5571 5566 5561
5612 5614 5616 5618 5620 5622 5623 5625 5626 5627 5628 5629 5629 5629 5629 5629 5628 5627 5626 5625 5624 5622 5620 5618 5616 5614 5611 5608 5604 5601 5598 5595 5592 5588 5584 5580 5576 5571 5566 5562 5557 5552 5547
5603 5605 5607 5608 5610 5612 5613 5614 5616 5617 5618 5618 5618 5618 5618 5617 5616 5615 5614 5613 5612 5610 5608 5606 5603 5601 5599 5595 5592 5588 5585 5582 5578 5574 5571 5567 5562 5558 5553 5549 5544 5539 5533
5594 5596 5597 5599 5600 5602 5603 5604 5606 5606 5607 5607 5607 5607 5606 5605 5604 5603 5602 5601 5600 5598 5596 5593 5591 5589 5586 5582 5579 5576 5572 5569 5565 5561 5557 5553 5549 5544 5540 5535 5531 5525 5520
5584 5586 5587 5589 5590 5592 5593 5594 5595 5595 5596 5596 5596 5595 5594 5593 5592 5591 5590 5589 5587 5586 5583 5581 5579 5576 5574 5570 5566 5563 5559 5556 5552 5548 5544 5540 5536 5532 5526 5522 5517 5513 5507
5574 5575 5577 5578 5580 5581 5582 5583 5584 5584 5585 5585 5584 5584 5582 5582 5581 5580 5578 5577 5575 5573 5571 5569 5567 5564 5561 5558 5554 5550 5547 5543 5540 5536 5532 5527 5522 5517 5512 5508 5503 5499 5495
5563 5565 5566 5568 5569 5570 5571 5572 5573 5573 5573 5573 5573 5572 5571 5570 5569 5568 5567 5565 5563 5561 5559 5557 5555 5552 5549 5545 5542 5538 5534 5530 5527 5523 5519 5514 5509 5504 5499 5494 5490 5485 5481
5553 5554 5555 5557 5558 5559 5560 5561 5561 5562 5562 5561 5561 5561 5560 5559 5558 5557 5555 5554 5552 5550 5548 5545 5543 5540 5536 5533 5529 5526 5521 5517 5514 5510 5505 5501 5496 5491 5487 5482 5477 5473 5468
5542 5544 5545 5546 5547 5548 5548 5549 5550 5550 5550 5550 5550 5550 5549 5548 5547 5545 5544 5543 5541 5539 5536 5534 5531 5528 5525 5521 5517 5513 5509 5505 5501 5497 5492 5488 5483 5479 5475 5470 5466 5461 5457
5532 5533 5534 5535 5536 5537 5537 5538 5538 5539 5539 5540 5539 5539 5538 5537 5536 5535 5533 5532 5530 5528 5525 5523 5520 5517 5513 5509 5506 5501 5497 5493 5489 5484 5480 5476 5471 5467 5463 5459 5455 5450 5447
5522 5523 5524 5525 5526 5526 5526 5527 5528 5528 5529 5529 5529 5528 5528 5527 5526 5525 5523 5521 5519 5517 5514 5512 5509 5505 5502 5498 5494 5490 5486 5482 5478 5473 5469 5465 5461 5457 5452 5448 5444 5440 5436
5512 5513 5514 5515 5515 5516 5516 5517 5517 5518 5518 5519 5518 5518 5517 5517 5516 5514 5513 5510 5508 5506 5503 5500 5497 5494 5491 5487 5483 5479 5475 5470 5466 5463 5459 5455 5451 5446 5442 5438 5434 5430 5426